When you browse on this site, cookies collect data to enhance your experience and personalize the content and advertising you see.
Visit our Privacy Policy to learn more. By continuing to use the site, you agree to this use of cookies and data.
  • In Italy
  • List of Countries
  • For 7 days
  • Water Temperature
  • Satellite Maps
  • Weather Map
  • Weather Widgets
  • user-avatar
    Login

    Hourly Weather Szalwinek

    Today, 22 February, Friday

    Time Temperature Precipitation Wind Pressure Humidity
    00:00 -4°C° 0.1 mm 5 mps 767 mmHg 82%
    01:00 -5°C° 0 mm 5 mps 768 mmHg 78%
    02:00 -5°C° 0 mm 5 mps 769 mmHg 75%
    03:00 -5°C° 0 mm 5 mps 770 mmHg 71%
    04:00 -6°C° 0 mm 5 mps 771 mmHg 67%
    05:00 -6°C° 0 mm 5 mps 772 mmHg 67%
    06:00 -7°C° 0 mm 5 mps 773 mmHg 66%
    07:00 -8°C° 0 mm 5 mps 775 mmHg 65%
    08:00 -7°C° 0 mm 5 mps 776 mmHg 60%
    09:00 -7°C° 0 mm 5 mps 777 mmHg 55%
    10:00 -6°C° 0 mm 5 mps 777 mmHg 50%
    11:00 -6°C° 0 mm 5 mps 778 mmHg 48%
    12:00 -5°C° 0 mm 5 mps 779 mmHg 46%
    13:00 -4°C° 0 mm 4 mps 780 mmHg 44%
    14:00 -4°C° 0 mm 4 mps 780 mmHg 45%
    15:00 -4°C° 0 mm 4 mps 780 mmHg 46%
    16:00 -4°C° 0 mm 4 mps 780 mmHg 47%
    17:00 -4°C° 0 mm 3 mps 781 mmHg 51%
    18:00 -5°C° 0 mm 3 mps 781 mmHg 54%
    19:00 -4°C° 0 mm 2 mps 782 mmHg 58%
    20:00 -4°C° 0 mm 2 mps 782 mmHg 58%
    21:00 -2°C° 0 mm 1 mps 782 mmHg 58%
    22:00 -2°C° 0 mm 1 mps 783 mmHg 58%
    23:00 -2°C° 0 mm 1 mps 783 mmHg 58%

    Tomorrow, 23 February, Saturday

    Time Temperature Precipitation Wind Pressure Humidity
    00:00 -2°C° 0 mm 1 mps 783 mmHg 58%
    01:00 -3°C° 0 mm 0 mps 783 mmHg 59%
    02:00 -3°C° 0 mm 0 mps 783 mmHg 58%
    03:00 -2°C° 0 mm 1 mps 783 mmHg 58%
    04:00 -3°C° 0 mm 1 mps 783 mmHg 57%
    05:00 -3°C° 0 mm 1 mps 783 mmHg 56%
    06:00 -3°C° 0 mm 1 mps 783 mmHg 55%
    07:00 -3°C° 0 mm 1 mps 783 mmHg 55%
    08:00 -4°C° 0 mm 2 mps 783 mmHg 50%
    09:00 -3°C° 0 mm 2 mps 783 mmHg 45%
    10:00 -2°C° 0 mm 2 mps 783 mmHg 41%
    11:00 -2°C° 0 mm 3 mps 783 mmHg 40%
    12:00 -1°C° 0 mm 3 mps 783 mmHg 39%
    13:00 -1°C° 0 mm 3 mps 782 mmHg 38%
    14:00 -1°C° 0 mm 3 mps 782 mmHg 38%
    15:00 -1°C° 0 mm 3 mps 781 mmHg 39%
    16:00 -1°C° 0 mm 3 mps 781 mmHg 40%
    17:00 -1°C° 0 mm 3 mps 781 mmHg 42%
    18:00 -2°C° 0 mm 3 mps 780 mmHg 45%
    19:00 -2°C° 0 mm 3 mps 780 mmHg 47%
    20:00 -2°C° 0 mm 3 mps 780 mmHg 47%
    21:00 -2°C° 0 mm 3 mps 779 mmHg 47%
    22:00 -2°C° 0 mm 3 mps 779 mmHg 46%
    23:00 -2°C° 0 mm 3 mps 779 mmHg 46%

    Day after tomorrow, 24 February, Sunday

    Time Temperature Precipitation Wind Pressure Humidity
    00:00 -2°C° 0 mm 3 mps 779 mmHg 46%
    01:00 -2°C° 0 mm 3 mps 778 mmHg 46%
    02:00 -1°C° 0 mm 3 mps 778 mmHg 47%
    03:00 -1°C° 0 mm 3 mps 778 mmHg 48%
    04:00 -1°C° 0 mm 3 mps 777 mmHg 50%
    05:00 -1°C° 0 mm 3 mps 777 mmHg 51%
    06:00 -1°C° 0 mm 3 mps 777 mmHg 52%
    07:00 -1°C° 0 mm 3 mps 777 mmHg 53%
    08:00 0°C° 0 mm 3 mps 777 mmHg 53%
    09:00 +1°C° 0 mm 3 mps 777 mmHg 53%
    10:00 +2°C° 0 mm 3 mps 776 mmHg 52%
    11:00 +3°C° 0 mm 3 mps 776 mmHg 53%
    12:00 +4°C° 0 mm 3 mps 776 mmHg 54%
    13:00 +7°C° 0 mm 3 mps 776 mmHg 55%
    14:00 +5°C° 0 mm 3 mps 776 mmHg 60%
    15:00 +6°C° 0 mm 2 mps 775 mmHg 65%
    16:00 +5°C° 0 mm 2 mps 775 mmHg 70%
    17:00 +4°C° 0 mm 2 mps 775 mmHg 73%
    18:00 +3°C° 0 mm 2 mps 775 mmHg 76%
    19:00 +1°C° 0 mm 3 mps 775 mmHg 79%
    20:00 +1°C° 0 mm 3 mps 775 mmHg 81%
    21:00 +1°C° 0 mm 3 mps 776 mmHg 83%
    22:00 +1°C° 0 mm 3 mps 776 mmHg 85%
    23:00 +1°C° 0 mm 3 mps 776 mmHg 88%

    25 February, Monday

    Time Temperature Precipitation Wind Pressure Humidity
    00:00 +1°C° 0 mm 3 mps 776 mmHg 91%
    01:00 +1°C° 0 mm 3 mps 776 mmHg 93%
    02:00 +1°C° 0 mm 3 mps 776 mmHg 94%
    03:00 +2°C° 0 mm 2 mps 776 mmHg 94%
    04:00 +2°C° 0 mm 2 mps 776 mmHg 95%
    05:00 +2°C° 0 mm 2 mps 776 mmHg 94%
    06:00 +2°C° 0 mm 2 mps 776 mmHg 94%
    07:00 +2°C° 0 mm 1 mps 777 mmHg 93%
    08:00 +3°C° 0 mm 2 mps 777 mmHg 90%
    09:00 +4°C° 0 mm 2 mps 777 mmHg 87%
    10:00 +6°C° 0 mm 2 mps 777 mmHg 84%
    11:00 +6°C° 0 mm 2 mps 777 mmHg 83%
    12:00 +7°C° 0 mm 3 mps 777 mmHg 82%
    13:00 +8°C° 0 mm 3 mps 776 mmHg 81%
    14:00 +7°C° 0 mm 3 mps 776 mmHg 82%
    15:00 +7°C° 0 mm 2 mps 775 mmHg 83%
    16:00 +7°C° 0 mm 2 mps 775 mmHg 84%
    17:00 +6°C° 0 mm 2 mps 775 mmHg 86%
    18:00 +5°C° 0 mm 2 mps 774 mmHg 89%
    19:00 +4°C° 0 mm 2 mps 774 mmHg 92%
    20:00 +4°C° 0 mm 2 mps 774 mmHg 92%
    21:00 +3°C° 0 mm 3 mps 774 mmHg 92%
    22:00 +2°C° 0 mm 3 mps 773 mmHg 93%
    23:00 +2°C° 0 mm 3 mps 773 mmHg 92%

    26 February, Tuesday

    Time Temperature Precipitation Wind Pressure Humidity
    00:00 +3°C° 0 mm 2 mps 773 mmHg 92%
    01:00 +3°C° 0 mm 2 mps 773 mmHg 92%
    02:00 +3°C° 0 mm 2 mps 772 mmHg 90%
    03:00 +3°C° 0 mm 2 mps 772 mmHg 88%
    04:00 +2°C° 0 mm 3 mps 771 mmHg 87%
    05:00 +2°C° 0 mm 3 mps 771 mmHg 84%
    06:00 +2°C° 0 mm 3 mps 771 mmHg 82%
    07:00 +2°C° 0 mm 3 mps 771 mmHg 80%
    08:00 +3°C° 0 mm 4 mps 771 mmHg 78%
    09:00 +4°C° 0 mm 4 mps 771 mmHg 75%
    10:00 +5°C° 0 mm 5 mps 771 mmHg 73%
    11:00 +6°C° 0 mm 5 mps 771 mmHg 71%
    12:00 +7°C° 0 mm 5 mps 771 mmHg 69%
    13:00 +8°C° 0 mm 5 mps 771 mmHg 66%
    14:00 +7°C° 0 mm 5 mps 771 mmHg 69%
    15:00 +7°C° 0 mm 4 mps 771 mmHg 72%
    16:00 +6°C° 0 mm 4 mps 771 mmHg 75%
    17:00 +5°C° 0 mm 3 mps 771 mmHg 80%
    18:00 +4°C° 0 mm 3 mps 772 mmHg 85%
    19:00 +4°C° 0 mm 2 mps 772 mmHg 90%
    20:00 +4°C° 0 mm 2 mps 772 mmHg 90%
    21:00 +3°C° 0 mm 2 mps 772 mmHg 91%
    22:00 +4°C° 0 mm 1 mps 772 mmHg 91%
    23:00 +4°C° 0 mm 1 mps 772 mmHg 91%

    27 February, Wednesday

    Time Temperature Precipitation Wind Pressure Humidity
    00:00 +4°C° 0 mm 1 mps 772 mmHg 91%
    01:00 +3°C° 0 mm 1 mps 772 mmHg 90%
    02:00 +3°C° 0 mm 1 mps 771 mmHg 90%
    03:00 +2°C° 0 mm 2 mps 771 mmHg 90%
    04:00 +2°C° 0 mm 2 mps 770 mmHg 90%
    05:00 +2°C° 0 mm 2 mps 770 mmHg 90%
    06:00 +1°C° 0 mm 3 mps 770 mmHg 91%
    07:00 +1°C° 0 mm 3 mps 769 mmHg 91%
    08:00 +2°C° 0 mm 3 mps 769 mmHg 85%
    09:00 +4°C° 0 mm 4 mps 768 mmHg 79%
    10:00 +6°C° 0 mm 4 mps 768 mmHg 73%
    11:00 +7°C° 0 mm 5 mps 767 mmHg 68%
    12:00 +9°C° 0 mm 5 mps 766 mmHg 64%
    13:00 +11°C° 0 mm 6 mps 766 mmHg 60%
    14:00 +10°C° 0 mm 5 mps 765 mmHg 60%
    15:00 +10°C° 0 mm 5 mps 764 mmHg 61%
    16:00 +10°C° 0 mm 5 mps 763 mmHg 62%
    17:00 +9°C° 0 mm 5 mps 763 mmHg 65%
    18:00 +8°C° 0 mm 5 mps 762 mmHg 68%
    19:00 +7°C° 0 mm 5 mps 762 mmHg 71%
    20:00 +7°C° 0 mm 5 mps 761 mmHg 73%
    21:00 +6°C° 0 mm 5 mps 761 mmHg 74%
    22:00 +6°C° 0 mm 5 mps 760 mmHg 75%
    23:00 +6°C° 0 mm 5 mps 760 mmHg 76%
    Show more